AKDT,Max TemperatureF,Mean TemperatureF,Min TemperatureF,Max Dew PointF,MeanDew PointF,Min DewpointF,Max Humidity, Mean Humidity, Min Humidity, Max Sea Level PressureIn, Mean Sea Level PressureIn, Min Sea Level PressureIn, Max VisibilityMiles, Mean VisibilityMiles, Min VisibilityMiles, Max Wind SpeedMPH, Mean Wind SpeedMPH, Max Gust SpeedMPH,PrecipitationIn, CloudCover, Events, WindDirDegrees
2013-10-1,30,28,26,28,26,24,100,91,85,30.17,30.15,30.12,10,5,2,21,17,,0.00,8,Snow,66
2013-10-2,28,21,14,28,17,12,100,92,84,30.12,30.10,30.08,10,6,1,16,11,,0.00,8,Snow,235
2013-10-3,30,24,17,29,24,15,100,94,86,30.07,30.00,29.93,7,2,0,10,7,,0.00,8,Fog-Snow,313
2013-10-4,30,28,27,30,29,25,100,96,92,29.94,29.92,29.90,10,4,0,12,6,,0.00,8,Fog-Snow,30
2013-10-5,28,19,10,28,19,8,100,92,86,29.89,29.81,29.67,10,4,0,9,4,,0.00,5,Fog,105
2013-10-6,27,17,7,22,12,3,92,86,78,29.66,29.63,29.60,10,10,10,10,6,,0.00,0,,143
2013-10-7,28,19,10,27,21,7,96,91,84,29.81,29.76,29.67,10,9,1,12,7,,0.00,7,Snow,249
2013-10-8,28,24,21,28,25,21,100,94,86,29.76,29.44,29.03,10,4,0,31,18,39,0.00,8,Fog-Snow,85
2013-10-9,28,26,24,27,25,23,100,93,88,29.40,29.16,29.00,10,6,1,22,11,,0.00,8,Snow,223
2013-10-10,28,24,19,27,22,18,100,89,80,29.65,29.56,29.42,10,10,6,25,19,32,0.00,7,Snow,212
2013-10-11,34,18,10,24,14,9,100,90,85,29.73,29.68,29.65,10,5,0,15,5,,0.00,6,Fog,100
2013-10-12,28,22,12,26,19,10,92,87,77,29.81,29.76,29.73,10,10,10,10,6,,0.00,4,,117
2013-10-13,30,22,14,29,23,11,96,91,85,29.81,29.63,29.36,10,8,1,25,12,33,0.00,5,Snow,78
2013-10-14,30,27,24,28,24,21,93,88,85,29.60,29.42,29.34,10,10,6,22,15,,0.00,8,Rain-Snow,235
2013-10-15,28,22,16,26,19,14,96,90,85,29.75,29.70,29.62,10,10,9,21,12,,0.00,4,,246
2013-10-16,28,22,17,27,21,16,100,92,86,29.96,29.88,29.75,10,3,0,16,5,,0.00,6,Fog-Rain,67
2013-10-17,36,32,28,32,29,27,96,90,82,29.84,29.68,29.46,10,10,10,15,10,,0.00,5,,119
2013-10-18,41,29,21,33,28,21,100,91,79,29.58,29.54,29.44,10,7,0,17,9,,0.00,6,Fog,263
2013-10-19,30,28,26,30,27,25,100,96,92,29.57,29.45,29.35,10,5,0,16,12,,0.00,5,Fog-Rain,83
2013-10-20,30,24,19,29,24,18,100,94,88,29.74,29.55,29.39,10,8,0,9,6,,0.00,5,Fog,236
2013-10-21,30,22,16,26,21,13,89,88,84,30.02,29.88,29.75,10,10,10,15,11,,0.00,5,,229
2013-10-22,27,21,15,24,17,12,96,89,84,30.18,30.13,30.03,10,9,2,13,9,,0.00,5,,236
2013-10-23,25,21,17,23,20,16,96,92,86,30.18,30.12,30.06,10,5,0,13,8,,0.00,8,Fog-Snow,252
2013-10-24,23,12,1,20,11,-2,95,90,85,30.12,30.10,30.09,10,6,0,13,9,,0.00,8,Fog-Snow,270
2013-10-25,25,12,0,21,13,-2,93,86,80,30.11,30.04,30.00,10,7,0,29,10,36,0.00,7,Fog,77
2013-10-26,25,20,17,22,19,14,93,91,86,30.40,30.26,30.09,10,10,10,14,8,,0.00,8,,230
2013-10-27,25,22,18,22,19,16,92,88,81,30.34,29.99,29.70,10,10,10,24,14,,0.00,4,,111
2013-10-28,30,24,19,27,23,15,96,89,81,29.69,29.35,29.10,10,8,1,20,9,,0.00,7,Snow,50
2013-10-29,28,24,21,27,24,19,100,93,89,29.55,29.33,29.09,10,4,1,17,12,,0.03,8,Snow,315
2013-10-30,21,19,17,20,18,16,100,93,86,29.56,29.53,29.51,10,7,2,14,6,,0.00,8,Snow,349
2013-10-31,19,14,10,16,13,9,93,90,88,29.83,29.69,29.55,10,8,1,9,6,,0.00,8,Snow,175